Regional Weather Roundup
Issued by NWS

Home | Current Version | Previous Version | Graphics & Text | Print | Product List | Glossary On
Versions: 1 2 3 4 5 6 7 8 9 10 11 12 13 14 15 16 17 18 19 20 21 22 23 24 25 26 27 28 29 30 31 32 33 34 35 36 37 38 39 40 41 42 43 44 45 46 47 48 49 50
000
ASUS45 KPSR 302200
RWRAZ

PRELIMINARY ARIZONA REGIONAL HOURLY WEATHER ROUNDUP
NATIONAL WEATHER SERVICE PHOENIX AZ
300 PM MST FRI JAN 30 2015

NOTE: FAIR INDICATES FEW OR NO CLOUDS BELOW 12,000 FEET WITH NO
SIGNIFICANT WEATHER AND/OR OBSTRUCTIONS TO VISIBILITY.

AZZ001>003-036-302300-
NORTHWEST ARIZONA

CITY           SKY/WX    TMP DP  RH WIND       PRES   REMARKS
KINGMAN        CLOUDY    49  45  86 NE3       29.85S
$$

AZZ004>008-015-016-018-302300-
NORTH CENTRAL ARIZONA

CITY           SKY/WX    TMP DP  RH WIND       PRES   REMARKS
GRAND CANYON   LGT RAIN  38  36  92 E8G17     29.90F WCI  32
PRESCOTT       LGT RAIN  47  46  97 SE12      29.87S
FLAGSTAFF      NOT AVBL
PAYSON         LGT RAIN  45  43  93 S5        29.93S
$$

AZZ009>014-017-302300-
NORTHEAST ARIZONA

CITY           SKY/WX    TMP DP  RH WIND       PRES   REMARKS
WINSLOW        NOT AVBL
SAINT JOHNS    CLOUDY    51  38  60 SE15      29.89F
WINDOW ROCK    FLURRIES  36  32  85 SE6       30.00F WCI  31
$$

AZZ023-302300-
GREATER PHOENIX AREA

CITY           SKY/WX    TMP DP  RH WIND       PRES   REMARKS
PHOENIX        LGT RAIN  58  57  97 SW5       29.82F FOG
GLENDALE       LGT RAIN  59  59 100 CALM      29.84F
LUKE AFB       CLOUDY    58  56  92 S5        29.82S
DEER VALLEY    LGT RAIN  56  55  97 SE5       29.83F FOG
SCOTTSDALE     LGT RAIN  56  54  93 S3        29.87S FOG
MESA-FALCON    CLOUDY    55  55 100 E6        29.84S
CHANDLER       FOG       57  57 100 E9        29.84S VSB 1
$$

AZZ027-028-302300-
SOUTHWEST MARICOPA COUNTY AND PINAL COUNTY

CITY           SKY/WX    TMP DP  RH WIND       PRES   REMARKS
CASA GRANDE    CLOUDY    57  55  94 NW5       29.84S
$$

AZZ503-504-507>509-302300-
SOUTHEAST ARIZONA

CITY           SKY/WX    TMP DP  RH WIND       PRES   REMARKS
TUCSON         CLOUDY    60  54  80 E8        29.85F
DAVIS-MONTHAN  CLOUDY    58  55  87 E8        29.84F
RYAN FIELD       N/A     57  57 100 NW6       29.86F
NOGALES        LGT RAIN  56  52  86 S5        29.88S
SIERRA VISTA   LGT RAIN  52  50  93 SE9       29.89F
SAFFORD        LGT RAIN  47  45  93 SE5       29.95F
$$

AZZ020-021-025-026-031-302300-
SOUTHWEST ARIZONA

CITY           SKY/WX    TMP DP  RH WIND       PRES   REMARKS
YUMA           PTSUNNY   69  52  54 NW8       29.82F
$$

CAZ031-033-041-043-047-048-061-302300-
SOUTHERN CALIFORNIA

CITY           SKY/WX    TMP DP  RH WIND       PRES   REMARKS
DOWNTOWN L.A.  PTSUNNY   69  47  45 CALM      29.84F
L.A. AIRPORT   CLOUDY    66  52  60 W9        29.84F
SAN DIEGO      CLOUDY    64  52  64 N6        29.88F
BURBANK        PTSUNNY   67  49  52 S6        29.84F
ONTARIO        CLOUDY    65  46  50 W6        29.85F
RIVERSIDE      CLOUDY    66  45  46 VRB6      29.85F
PALM SPRINGS   LGT RAIN  64  48  56 CALM      29.87F
EL CENTRO NAS  PTSUNNY   69  47  45 N9        29.83F
IMPERIAL       CLOUDY    67  50  54 N8        29.82F
BLYTHE         CLOUDY    65  52  62 NE5       29.83F
$$

NVZ020-UTZ003-302300-
SOUTHERN NEVADA-UTAH

CITY           SKY/WX    TMP DP  RH WIND       PRES   REMARKS
LAS VEGAS      NOT AVBL
SALT LAKE CITY LGT RAIN  43  36  76 W3        30.03F
$$

NMZ009-TXZ055-302300-
NEW MEXICO-WEST TEXAS

CITY           SKY/WX    TMP DP  RH WIND       PRES   REMARKS
ALBUQUERQUE    LGT RAIN  37  31  78 E13       30.11F WCI  29
EL PASO        LGT RAIN  46  39  76 E13       30.06F
$$


........................KEY........................
SKY/WX - SKY CONDITION/WEATHER
TMP    - TEMPERATURE IN FAHRENHEIT
DP     - DEW POINT IN FAHRENHEIT
RH     - RELATIVE HUMIDITY IN PERCENT
WIND   - DIRECTION AND SPEED IN MILES PER HOUR (MPH)
VRB    - VARIABLE WIND DIRECTION
PRES   - MEAN SEA LEVEL PRESSURE IN INCHES OF MERCURY
         F - FALLING PRESSURE   R - RISING PRESSURE
         S - STEADY PRESSURE
VSB    - VISIBILITY IN MILES
HX     - HEAT INDEX IN FAHRENHEIT
WCI    - WIND CHILL INDEX IN FAHRENHEIT
TC     - TEMPERATURE IN CELSIUS WHICH IS ALSO KNOWN AS
         TEMPERATURE IN CENTIGRADE
AFB    - AIR FORCE BASE
         LUKE AFB IS LUKE AIR FORCE BASE
         DAVIS-MONTHAN IS DAVIS-MONTHAN AIR FORCE BASE
NAS    - NAVAL AIR STATION
         EL CENTRO NAS IS EL CENTRO NAVAL AIR STATION
N/A    - NOT AVAILABLE



USA.gov is the U.S. government's official web portal to all federal, state and local government web resources and services.